FW1542 Weather Reports


time (UTC)temp
C
wind
direction
speed
KPH
gust
KPH
rain 1hr
cm
rain 24hr
cm
rain mn
cm
humidity
%
barometer
mb
20260503050049 14 86 1.6 3.2 0.00 0.00 0.00 79 1021.4
20260503050022 14 86 1.6 3.2 0.00 0.00 0.00 80 1024.8
20260503044548 15 87 0.0 3.2 0.00 0.00 0.00 77 1021.5
20260503044527 15 87 1.6 3.2 0.00 0.00 0.00 78 1024.9
20260503043053 15 88 1.6 3.2 0.00 0.00 0.00 76 1021.3
20260503043021 15 88 1.6 3.2 0.00 0.00 0.00 76 1024.7
20260503041550 15 0 0.0 0.0 0.00 0.00 0.00 74 1021.6
20260503041521 15 88 0.0 0.0 0.00 0.00 0.00 74 1025.0
20260503040046 15 0 0.0 3.2 0.00 0.00 0.00 71 1021.5
20260503040019 15 88 0.0 3.2 0.00 0.00 0.00 72 1024.8
20260503034547 15 88 3.2 4.8 0.00 0.00 0.00 71 1021.2
20260503034519 15 88 3.2 4.8 0.00 0.00 0.00 71 1024.6
20260503033046 16 88 1.6 3.2 0.00 0.00 0.00 68 1021.1
20260503033018 16 88 1.6 3.2 0.00 0.00 0.00 69 1024.5
20260503031544 16 88 1.6 4.8 0.00 0.00 0.00 66 1021.1
20260503031518 16 88 1.6 3.2 0.00 0.00 0.00 66 1024.3
20260503030041 17 88 1.6 3.2 0.00 0.00 0.00 63 1020.8
20260503030016 17 88 1.6 3.2 0.00 0.00 0.00 64 1024.3
20260503024543 17 88 1.6 4.8 0.00 0.00 0.00 61 1020.6
20260503024518 17 88 1.6 4.8 0.00 0.00 0.00 61 1024.1
20260503023046 18 89 1.6 6.4 0.00 0.00 0.00 59 1020.5
20260503023016 18 89 3.2 6.4 0.00 0.00 0.00 59 1023.9
20260503021543 18 105 1.6 6.4 0.00 0.00 0.00 59 1020.4
20260503021519 18 105 1.6 6.4 0.00 0.00 0.00 59 1023.8
20260503020045 18 91 3.2 9.7 0.00 0.00 0.00 57 1020.0
20260503020015 18 92 3.2 9.7 0.00 0.00 0.00 58 1023.4
20260503014551 19 102 4.8 12.9 0.00 0.00 0.00 56 1019.6
20260503014515 19 103 3.2 12.9 0.00 0.00 0.00 56 1023.2
20260503013044 20 42 1.6 4.8 0.00 0.00 0.00 53 1019.5
20260503013029 20 42 1.6 4.8 0.00 0.00 0.00 53 1023.0
20260503011542 21 0 1.6 6.4 0.00 0.00 0.00 50 1019.5
20260503011514 21 42 1.6 4.8 0.00 0.00 0.00 51 1022.9
20260503010051 21 0 3.2 9.7 0.00 0.00 0.00 49 1019.2
20260503010014 21 42 3.2 9.7 0.00 0.00 0.00 49 1022.8
20260503004548 21 52 3.2 12.9 0.00 0.00 0.00 47 1019.2
20260503004513 21 53 3.2 8.0 0.00 0.00 0.00 48 1022.7
20260503003047 22 59 3.2 11.3 0.00 0.00 0.00 46 1019.1
20260503003013 22 53 3.2 9.7 0.00 0.00 0.00 47 1022.5
20260503001549 22 37 1.6 16.1 0.00 0.00 0.00 47 1019.0
20260503001512 22 57 1.6 11.3 0.00 0.00 0.00 47 1022.3
20260503000045 22 67 4.8 16.1 0.00 0.00 0.00 46 1019.0
20260503000011 22 55 6.4 16.1 0.00 0.00 0.00 47 1022.6
20260502234553 22 46 3.2 16.1 0.00 0.00 0.00 45 1019.0
20260502234511 22 14 1.6 14.5 0.00 0.00 0.00 46 1022.6
20260502233043 23 342 3.2 14.5 0.00 0.00 0.00 45 1018.9
20260502233026 23 355 3.2 14.5 0.00 0.00 0.00 46 1022.6
20260502231546 23 67 4.8 19.3 0.00 0.00 0.00 44 1019.0
20260502231510 23 63 4.8 19.3 0.00 0.00 0.00 45 1022.5
20260502230047 23 327 4.8 19.3 0.00 0.00 0.00 45 1019.1
20260502230009 23 324 3.2 19.3 0.00 0.00 0.00 45 1022.6
20260502224547 23 32 6.4 17.7 0.00 0.00 0.00 47 1019.1
20260502224507 23 54 4.8 17.7 0.00 0.00 0.00 45 1022.5
20260502223048 23 119 4.8 16.1 0.00 0.00 0.00 46 1018.9
20260502223007 23 76 4.8 16.1 0.00 0.00 0.00 47 1022.5
20260502221543 23 35 4.8 19.3 0.00 0.00 0.00 44 1019.0
20260502221513 23 9 4.8 19.3 0.00 0.00 0.00 45 1022.6
20260502220047 23 342 6.4 19.3 0.00 0.00 0.00 44 1018.9
20260502220007 23 342 4.8 17.7 0.00 0.00 0.00 44 1022.6
20260502214555 23 9 4.8 16.1 0.00 0.00 0.00 44 1019.2
20260502214505 23 49 6.4 16.1 0.00 0.00 0.00 45 1022.7
20260502213045 23 49 11.3 25.7 0.00 0.00 0.00 43 1019.3
20260502213003 23 61 11.3 25.7 0.00 0.00 0.00 43 1022.9
20260502211545 23 82 4.8 19.3 0.00 0.00 0.00 47 1019.5
20260502211502 23 90 4.8 19.3 0.00 0.00 0.00 47 1023.0
20260502210053 23 112 12.9 20.9 0.00 0.00 0.00 44 1019.7
20260502210001 23 66 11.3 20.9 0.00 0.00 0.00 45 1023.3
20260502204601 23 77 8.0 24.1 0.00 0.00 0.00 47 1023.4
20260502204553 23 73 8.0 24.1 0.00 0.00 0.00 46 1020.0
20260502203059 23 44 8.0 20.9 0.00 0.00 0.00 49 1023.6
20260502203050 23 26 8.0 20.9 0.00 0.00 0.00 49 1020.2
20260502201600 23 84 9.7 25.7 0.00 0.00 0.00 51 1023.8
20260502201546 23 82 8.0 24.1 0.00 0.00 0.00 51 1020.2
20260502200100 23 112 9.7 27.4 0.00 0.00 0.00 48 1023.9
20260502200047 23 46 6.4 27.4 0.00 0.00 0.00 46 1020.3
20260502194603 23 57 6.4 19.3 0.00 0.00 0.00 50 1024.1
20260502194544 23 332 6.4 24.1 0.00 0.00 0.00 49 1020.5
20260502193057 23 340 4.8 25.7 0.00 0.00 0.00 51 1024.1
20260502193054 23 14 4.8 25.7 0.00 0.00 0.00 51 1020.4
20260502191600 22 44 9.7 25.7 0.00 0.00 0.00 51 1024.1
20260502191543 22 35 8.0 25.7 0.00 0.00 0.00 50 1020.5
20260502190053 22 46 14.5 24.1 0.00 0.00 0.00 49 1024.3
20260502190044 22 54 11.3 24.1 0.00 0.00 0.00 50 1020.8
20260502184558 22 24 11.3 25.7 0.00 0.00 0.00 52 1024.5
20260502184551 22 5 11.3 25.7 0.00 0.00 0.00 52 1020.8
20260502183053 22 16 9.7 20.9 0.00 0.00 0.00 53 1024.7
20260502183043 22 49 6.4 22.5 0.00 0.00 0.00 52 1021.0
20260502181552 22 40 8.0 20.9 0.00 0.00 0.00 53 1025.0
20260502181545 22 51 8.0 24.1 0.00 0.00 0.00 52 1021.3
20260502163050 21 44 12.9 29.0 0.00 0.33 0.00 53 1022.1
20260502163046 21 49 11.3 25.7 0.00 0.33 0.00 54 1025.8
20260502161545 20 58 8.0 24.1 0.00 0.33 0.00 53 1022.1
20260502161534 20 58 8.0 24.1 0.00 0.33 0.00 53 1026.0
20260502151553 18 335 9.7 22.5 0.00 0.33 0.00 60 1021.8
20260502151530 18 339 8.0 17.7 0.00 0.33 0.00 61 1025.6
20260502123051 10 5 11.3 20.9 0.00 1.73 0.00 85 1019.9
20260502123049 10 340 9.7 20.9 0.00 1.73 0.00 85 1023.5
20260502121545 10 342 8.0 16.1 0.00 1.73 0.00 86 1019.7
20260502121541 10 360 8.0 16.1 0.00 1.73 0.00 86 1023.3
20260502114543 10 336 6.4 19.3 0.00 1.80 0.00 86 1019.2
20260502114535 10 334 8.0 19.3 0.00 1.80 0.00 87 1022.9
20260502113043 10 352 6.4 20.9 0.00 1.80 0.00 86 1019.1
20260502113034 10 355 6.4 16.1 0.00 1.80 0.00 87 1022.9
20260502111546 10 11 8.0 19.3 0.00 1.80 0.00 86 1019.1
20260502111533 10 355 9.7 17.7 0.00 1.80 0.00 87 1022.8
20260502110044 10 352 6.4 19.3 0.00 1.80 0.00 87 1019.0
20260502110030 10 9 8.0 19.3 0.00 1.80 0.00 87 1022.6
20260502104543 10 347 8.0 17.7 0.00 3.07 0.00 88 1018.8
20260502104532 10 355 8.0 17.7 0.00 3.10 0.00 88 1022.6
20260502103101 10 348 3.2 16.1 0.00 3.07 0.00 89 1018.7
20260502103026 10 360 6.4 16.1 0.00 3.10 0.00 89 1022.5
20260502101559 10 336 3.2 8.0 0.00 3.07 0.00 89 1018.8
20260502101524 10 336 3.2 8.0 0.00 3.10 0.00 90 1022.6
20260502100110 10 318 0.0 4.8 0.00 3.07 0.00 88 1018.8
20260502091516 10 325 3.2 9.7 0.00 3.89 0.00 88 1021.4
20260502090105 10 336 1.6 6.4 0.00 3.89 0.00 88 1017.7
20260502071502 11 337 6.4 19.3 0.00 4.85 0.00 86 1020.6
20260502070052 11 328 4.8 16.1 0.00 4.85 0.00 86 1017.0
20260502070001 11 346 3.2 16.1 0.00 4.85 0.00 86 1020.6
20260502064614 11 345 8.0 17.7 0.00 5.28 0.00 86 1020.7
20260502064553 11 348 3.2 17.7 0.00 5.28 0.00 85 1017.3
20260502063108 11 344 4.8 16.1 0.00 5.28 0.00 85 1020.9
20260502063045 11 15 4.8 16.1 0.00 5.28 0.00 85 1017.4
20260502061613 12 21 4.8 14.5 0.00 5.28 0.00 85 1020.7
20260502061555 12 21 3.2 14.5 0.00 5.28 0.00 84 1017.2
20260502060056 12 10 4.8 17.7 0.00 5.28 0.00 85 1020.9
20260502060043 12 5 4.8 20.9 0.00 5.28 0.00 85 1017.4
20260502054555 12 9 6.4 20.9 0.00 5.92 0.00 85 1020.9
20260502054550 12 34 8.0 20.9 0.00 5.92 0.00 84 1017.5
20260502053102 12 28 11.3 27.4 0.00 5.92 0.00 84 1020.9
20260502053052 12 10 11.3 27.4 0.00 5.92 0.00 84 1017.4
20260502051549 12 355 8.0 25.7 0.00 5.92 0.00 84 1020.6